Flag for Switzerland Weather past 2 weeks in Olten, Solothurn, Switzerland

Now
69 °F

Mild.


Feels Like: 69 °F
Forecast: 43 / 60 °F
Wind: 7 mph from Southwest

Location: Wynau

Current Time: Sep 21, 2014 at 12:59:46 PM

Latest Report: Sep 21, 2014 at 12:00 PM


Visibility: N/A

Pressure: 30.00 "Hg

Humidity: 74%

Dew point: 60 °F

Location of OltenLocation

Historic Weather in Olten — Graph

°F

Olten temperature yesterday

Maximum temperature yesterday: 77 °F (at 3:00 PM)
Minimum temperature yesterday: 59 °F (at 11:00 PM)
Average temperature yesterday: 64 °F

Past Weeks' High & Low Weather Summary

 TemperatureHumidityPressure
High81 °F (Sep 7, 5:00 PM)100% (Sep 8, 7:00 AM)30.14 "Hg (Sep 8, 7:00 AM)
Low47 °F (Sep 12, 6:00 AM)44% (Sep 7, 5:00 PM)29.80 "Hg (Sep 17, 6:00 PM)
Average62 °F83%29.98 "Hg
* Reported Sep 6 11:00 AM — Sep 21 11:00 AM, Olten, Weather by CustomWeather, © 2014

Note: Actual official high and low records may vary slightly from our data, if they occured in-between our weather recording intervals... More about our weather records

Advertising

Olten weather history for previous 24 hours

 ConditionsComfort  
Time TempWeatherWind HumidityBarometerVisibility
11:00 AM
Sep 21
65 °FMild.3 mph79%30.03 "HgN/A
10:00 AM63 °FMild.3 mph84%30.04 "HgN/A
9:00 AM60 °FCool.2 mph91%30.05 "HgN/A
8:00 AM58 °FCool.3 mph96%30.06 "HgN/A
7:00 AM58 °FCool.2 mph96%30.06 "HgN/A
6:00 AM58 °FCool.2 mph97%30.05 "HgN/A
5:00 AM57 °FCool.3 mph96%30.05 "HgN/A
4:00 AM56 °FCool.2 mph99%30.06 "HgN/A
3:00 AM56 °FCool.1 mph99%30.06 "HgN/A
2:00 AM57 °FCool.2 mph98%30.06 "HgN/A
1:00 AM58 °FCool.1 mph98%30.06 "HgN/A
12:00 AM59 °FCool.1 mph96%30.05 "HgN/A
11:00 PM
Sep 20
59 °FCool.1 mph99%30.05 "HgN/A
10:00 PM60 °FCool.1 mph98%30.05 "HgN/A
9:00 PM62 °FCool.2 mph98%30.03 "HgN/A
8:00 PM64 °FMild.2 mph96%30.01 "HgN/A
7:00 PM66 °FMild.2 mph90%29.99 "HgN/A
3:00 PM77 °FMild.7 mph53%29.96 "HgN/A
2:00 PM74 °FMild.6 mph61%29.98 "HgN/A
1:00 PM71 °FMild.5 mph72%30.00 "HgN/A
12:00 PM67 °FMild.3 mph83%30.02 "HgN/A
Weather by CustomWeather, © 2014

See weather overviewHow to use our weather pages